Regional Weather Roundup
Issued by NWS

Current Version | Previous Version | Text Only | Print | Product List | Glossary On
Versions: 1 2 3 4 5 6 7 8 9 10 11 12 13 14 15 16 17 18 19 20 21 22 23 24 25 26 27 28 29 30 31 32 33 34 35 36 37 38 39 40 41 42 43 44 45 46 47 48 49 50
000
ASUS43 KBIS 231610
RWRND

NORTH DAKOTA REGIONAL WEATHER ROUNDUP
NATIONAL WEATHER SERVICE BISMARCK ND
1000 AM CST TUE JAN 23 2018

NOTE: "FAIR" INDICATES FEW OR NO CLOUDS BELOW 12,000 FEET WITH NO
SIGNIFICANT WEATHER AND/OR OBSTRUCTIONS TO VISIBILITY.


NDZ001>003-009>011-017-231700-
NORTHWEST NORTH DAKOTA

CITY           SKY/WX    TMP DP  RH WIND       PRES   REMARKS
WILLISTON      SUNNY     15  11  83 SW3       30.09R
MINOT          CLOUDY    18  15  88 NW17      30.05R WCI   3
MINOT AFB      CLOUDY    16  13  90 NW23      30.03R WCI  -2
$$

NDZ018>021-031>035-040>046-231700-
SOUTHWEST NORTH DAKOTA

CITY           SKY/WX    TMP DP  RH WIND       PRES   REMARKS
BISMARCK       CLOUDY    16  13  88 CALM      30.07R
DICKINSON      PTSUNNY   23  18  81 W14       30.04R WCI  11
GARRISON         N/A     19  17  92 NW7       30.04R WCI  10
HETTINGER ARPT PTSUNNY   28  20  71 NW16      30.08R WCI  16
$$

NDZ004>008-012>016-024-026-027-054-231700-
NORTHEAST NORTH DAKOTA

CITY           SKY/WX    TMP DP  RH WIND       PRES   REMARKS
GRAND FORKS    CLOUDY    22  18  85 S5        30.09R WCI  16
GRND FRKS AFB  CLOUDY    20  17  87 SW7       30.08S WCI  12
DEVILS LAKE    CLOUDY    20  18  92 W9        30.02R FOG     WCI   9
$$

NDZ022-023-025-028>030-036>039-047>053-231700-
SOUTHEAST NORTH DAKOTA

CITY           SKY/WX    TMP DP  RH WIND       PRES   REMARKS
FARGO          CLOUDY    20  16  84 CALM      30.11R
JAMESTOWN      CLOUDY    21  20  96 SW5       30.03S FOG     WCI  15
$$





USA.gov is the U.S. government's official web portal to all federal, state and local government web resources and services.